Weather in Kunduy

Russia / Irkutsk Oblast     54°20′35″N   101°15′40″E
temp.,
°C
wind,
m/s
gust,
m/s
humid.,
%
clouds,
%
prec.,
mm/h
press.,
hPa
HPBL,
m
20 september, mon
mon2023:00+10ese368915 0.0 100896
02:00+9ese3109397 0.0 1006192
05:00+9ese3119549 0.0 1005236
08:00+10se4139075 0.0 1003338
11:00+16sse345920 0.0 1000590
14:00+20sw1246100 0.0 9981053
17:00+19wnw4452100 0.0 997887
20:00+9nw101791100 1.9 1002956
21 september, tue
tue2123:00+6wnw81690100 8.0 10101147
02:00+4wnw614865 8.2 1012920
05:00+3wnw310925 0.0 1014437
08:00+3wnw27905 0.0 1015279
11:00+8n126154 0.0 10141002
14:00+10ese2249100 0.0 10131470
17:00+11e234739 0.0 10111402
20:00+6e3566100 0.0 101378
22 september, wed
wed2223:00+7n2266100 0.0 101463
02:00+3nnw5894100 0.3 1016476
05:00+4n2791100 0.4 1017429
08:00+4nw3694100 0.8 1018640
11:00+5nnw5670100 0.4 10191096
14:00+4nnw3579100 1.3 1020721
17:00+4nne2382100 1.2 1020483
20:00+2s22945 1.2 102218
23 september, thu
thu2323:000ssw11965 0.0 102310
02:00−1ese11955 0.0 102211
05:00−1se22976 0.0 102234
08:000se239632 0.0 1022109
11:00+6se347643 0.0 1020580
14:00+10se4556100 0.0 1018918
17:00+10se3552100 0.0 1016988
20:00+5e3572100 0.0 101788
24 september, fri
fri2423:00+4ene2278100 0.0 101823
02:00+4nw4885100 0.0 1019324
05:00+1nw41197100 2.5 1022453
08:00+2nw4893100 3.0 1024718
11:00+3nnw4679100 0.1 1025900
14:00+4nnw3473100 0.2 1026859
17:00+4n2364100 0.1 1026983
20:00+2nne2281100 0.1 102831